Location: A�t �Alizem
(31.2076°N, 8.7872°W)
Time: 20:55:42
(UTC+00:00)

deb Explorer IX - Pass Details

Date: 28 June 2021
Orbit: 541 x 1234 km, 38.9° (Epoch: 01 August)

Event Time Altitude Azimuth Distance (km) Brightness Sun altitude
Rises 20:31:33 0° 226° (SW) 2,701 ? -9.6°
Reaches altitude 10° 20:33:51 10° 220° (SW) 1,790 ? -10.0°
Maximum altitude 20:37:41 43° 147° (SSE) 765 ? -10.7°
Drops below altitude 10° 20:41:39 10° 76° (ENE) 1,861 ? -11.4°
Sets 20:44:05 0° 69° (ENE) 2,823 ? -11.8°
Enters shadow 20:44:07 - 69° (ENE) 2,832 ? -11.8°
